Temp
9 9 9 9 10 10 12 14 15 16 17 18 19 19 19 19 19 19 20 20 20 20 21 21 22 22 22 23 23 24 24 24 24 24 23 22 22 23 23 23 24 24 24 25 25 25 25 24 24 23 25 23 20 20 20 18 17 21 25 24 23 22 22 22 21 21 22 24 23 20 20 23 23 20 18 17 19 20 19 18 17 15 13 14 14 13 13 13
9 9 9 9 9 10 12 13 13 15 16 17 18 19 19 19 19 19 20 20 20 21 21 21 22 22 22 23 23 24 24 24 24 23 22 22 23 23 23 23 24 24 24 25 25 24 25 24 22 22 24 23 20 20 21 19 19 22 22 23 23 23 22 21 21 21 21 23 23 20 19 21 23 21 19 21 22 20 20 21 19 19 18 14 13 13 13 12
9 9 8 8 9 10 12 12 11 13 15 17 18 19 19 18 19 19 20 20 21 21 21 22 22 22 22 23 23 24 24 24 24 22 21 22 23 23 23 23 24 24 25 25 25 24 25 24 22 23 24 23 20 20 23 21 20 20 20 25 25 22 21 19 20 21 20 21 22 21 18 20 21 19 20 22 22 21 22 23 21 22 22 18 13 12 13 12
8 8 8 8 8 9 10 10 11 13 15 16 18 19 18 18 19 19 19 20 21 21 21 21 22 22 22 23 23 24 24 24 24 21 21 22 23 23 23 23 23 24 25 24 25 24 24 23 22 23 25 24 20 20 23 20 20 20 20 26 23 20 22 20 19 20 18 18 21 21 19 21 20 18 20 21 22 22 23 23 23 24 24 21 14 11 12 11
8 8 8 8 8 8 9 9 10 12 14 15 17 18 18 18 19 19 19 20 20 21 21 21 22 22 22 23 23 23 24 24 23 20 21 22 22 23 23 23 24 24 24 24 24 23 24 22 22 24 24 24 23 22 22 18 19 21 20 21 19 18 22 21 18 18 17 17 20 21 21 21 19 19 20 21 23 24 24 23 22 23 22 20 15 11 10 10
8 8 8 8 8 8 8 8 9 10 12 13 14 15 16 18 18 19 19 20 20 21 21 21 22 22 23 23 23 23 24 23 21 20 21 22 22 23 23 23 24 24 24 24 24 23 23 23 23 25 23 23 22 22 22 17 17 22 21 18 18 18 21 19 17 17 17 19 21 21 21 20 20 21 19 20 23 23 21 18 17 17 15 15 14 11 11 11
8 8 8 7 7 8 8 8 8 9 9 10 12 12 14 16 18 19 19 20 20 21 21 21 22 22 22 23 23 23 23 22 20 20 22 22 23 23 23 23 23 24 24 24 23 23 23 24 25 23 23 23 21 21 20 18 19 23 23 20 18 17 19 18 16 16 17 20 21 19 20 20 22 22 17 19 22 22 17 11 10 11 10 12 12 11 11 11
8 8 8 7 7 7 8 8 8 8 9 10 11 11 13 15 17 18 19 20 20 21 21 21 22 22 23 23 23 23 23 22 20 20 21 22 22 22 23 23 23 24 23 23 22 22 23 24 23 21 23 22 21 21 20 20 22 23 23 21 19 18 18 16 16 17 17 19 18 18 21 20 20 19 17 21 23 21 15 10 9 9 10 12 14 13 11 10
8 7 8 8 7 7 7 8 8 9 10 10 11 13 14 16 17 18 18 19 20 21 21 21 22 22 23 22 22 23 23 20 20 21 21 22 22 22 23 23 23 24 23 22 21 22 23 23 22 21 23 21 20 21 20 22 23 21 21 20 20 20 18 17 18 19 18 18 17 20 23 19 17 17 20 22 21 17 13 13 12 12 14 14 14 12 10 10
8 8 8 8 8 8 7 8 8 9 11 12 14 16 17 17 18 18 18 19 20 20 20 21 21 21 23 22 22 23 22 20 20 21 21 22 22 22 23 23 23 23 23 21 21 21 22 22 20 19 22 21 20 20 19 22 21 19 20 20 20 20 18 17 19 19 18 19 18 21 23 20 17 18 23 22 16 13 14 16 13 14 17 15 13 11 9 10
8 8 8 8 8 8 8 8 9 10 11 13 15 17 18 18 18 18 18 19 19 20 20 21 21 22 22 21 23 23 20 20 20 20 21 22 22 22 23 23 23 23 23 21 20 20 21 21 18 18 22 22 21 20 19 19 19 18 19 21 20 21 20 18 20 19 19 20 18 20 21 19 18 19 23 21 13 12 16 18 14 14 16 14 13 11 9 8
8 8 8 8 8 8 9 10 11 11 12 13 16 17 18 18 18 18 19 19 19 20 20 20 21 22 21 21 22 22 20 20 20 20 21 21 22 22 22 23 23 23 23 21 20 20 21 21 20 21 22 21 21 21 20 17 17 18 19 22 22 21 22 19 19 18 19 21 18 19 21 20 20 20 22 18 13 12 15 17 16 15 14 13 12 11 9 8
9 9 8 8 8 9 9 10 11 12 12 13 15 17 18 18 18 18 19 19 19 19 20 20 21 21 22 22 21 20 19 20 20 20 21 21 22 22 21 22 22 23 23 22 21 21 21 21 21 21 20 21 21 19 19 17 17 19 19 21 21 22 22 19 17 17 19 19 17 19 21 22 22 21 20 16 13 15 17 18 17 15 14 13 12 11 11 9
9 9 9 9 9 9 10 10 11 12 13 14 15 16 17 18 18 18 18 19 19 19 20 20 21 21 22 22 20 19 19 19 20 20 20 21 21 21 21 21 22 22 22 22 21 21 21 21 21 20 18 19 19 18 19 19 18 20 19 19 19 20 22 19 16 17 20 18 16 19 21 22 23 23 20 14 12 16 19 19 17 16 15 13 12 12 12 10
9 9 9 9 9 9 10 11 11 12 14 15 15 16 17 17 18 18 18 18 18 19 19 20 21 21 21 21 19 18 19 19 19 20 20 21 21 21 20 21 22 22 22 22 21 21 21 21 22 20 18 17 18 20 21 20 19 19 20 20 18 19 22 21 17 17 20 18 16 20 21 21 23 23 18 12 12 14 17 19 17 16 15 13 13 12 12 11
10 9 9 9 9 9 10 10 11 13 14 15 15 16 16 17 17 17 18 18 18 19 19 20 20 21 22 21 19 19 18 18 18 19 20 20 21 21 20 21 21 21 21 21 21 21 21 21 18 17 18 18 20 22 21 20 20 18 19 21 19 19 21 21 18 15 17 19 18 19 21 21 22 22 16 11 12 14 16 18 17 17 15 13 13 12 12 11
10 10 9 9 9 9 9 10 11 12 14 15 15 16 16 16 17 17 17 17 18 18 19 19 19 20 21 20 19 19 17 17 18 18 19 20 20 21 20 20 19 20 21 21 21 21 20 19 16 16 18 18 19 21 21 20 21 19 18 19 19 18 19 20 20 16 15 18 19 19 19 20 22 21 18 14 13 14 18 20 20 17 15 13 12 12 12 11
11 10 10 9 9 9 9 10 11 12 13 14 15 15 16 16 16 16 17 17 18 18 19 19 19 21 21 20 19 18 16 16 18 18 19 20 20 21 21 19 18 19 21 21 21 20 19 18 17 19 19 18 19 21 21 20 21 21 19 20 19 17 18 19 21 18 16 18 19 19 19 19 20 19 19 17 14 15 18 19 19 16 15 14 13 12 12 11
11 11 10 10 10 9 9 9 10 12 13 14 15 15 15 16 16 16 16 17 18 20 20 19 20 21 20 19 17 16 15 16 17 18 18 19 19 20 20 19 18 20 21 21 20 19 19 19 19 20 20 19 20 21 22 21 21 22 20 21 20 20 19 18 19 17 16 19 19 19 20 20 20 19 20 19 15 15 17 16 15 15 14 14 13 13 12 12
12 11 11 10 10 9 9 9 9 11 13 14 14 15 17 17 17 18 17 17 18 18 19 19 18 20 19 17 15 15 16 16 17 17 18 18 20 20 19 18 19 20 20 20 20 17 17 20 20 21 21 20 20 19 20 19 19 20 20 20 19 19 20 19 19 16 14 19 20 19 19 19 19 19 19 18 15 15 16 16 16 15 15 15 14 14 13 13
12 12 12 11 10 10 9 9 9 10 12 13 14 15 17 18 19 19 18 17 15 13 17 17 15 17 17 16 15 15 17 17 16 16 17 18 19 21 19 18 20 20 18 17 18 17 17 20 21 21 20 19 18 17 17 18 18 19 19 20 19 18 19 19 18 15 14 18 20 18 18 18 18 18 18 17 16 17 17 17 17 17 16 15 15 15 14 14
12 12 12 11 11 10 10 9 9 10 11 12 13 13 12 14 16 16 17 19 16 11 14 14 13 16 15 14 15 15 17 19 17 16 17 17 18 20 19 18 20 19 16 16 18 18 18 20 21 19 16 17 16 15 17 18 18 19 18 18 19 18 18 18 16 14 14 17 19 18 17 18 18 17 18 17 17 17 17 17 18 18 18 17 16 16 15 14
12 12 12 12 11 10 10 9 9 10 11 12 12 12 11 13 15 15 16 19 18 14 13 14 16 17 16 15 16 16 18 20 19 17 16 17 18 18 18 19 19 18 16 17 19 19 19 20 18 16 16 17 16 15 17 18 17 18 18 18 19 17 18 20 18 15 15 16 17 17 16 16 17 16 17 18 17 17 16 16 16 16 17 18 17 17 16 15
13 12 12 12 11 11 10 10 9 10 11 11 12 13 13 14 14 15 17 18 18 16 15 15 15 17 17 17 17 17 18 18 19 18 16 18 18 17 18 18 17 17 17 17 19 19 20 18 14 14 17 18 17 16 16 18 18 17 17 18 19 18 18 19 18 16 15 14 14 15 17 17 17 17 19 18 16 16 16 15 16 15 15 16 16 16 15 15
12 12 12 12 11 11 10 10 9 9 10 10 12 14 14 15 14 15 17 17 17 16 15 15 15 17 18 17 17 18 18 17 18 17 16 17 18 17 18 17 17 18 17 16 17 18 19 16 14 15 16 16 18 17 16 18 19 18 18 18 19 20 19 17 17 17 18 17 14 15 19 20 18 18 20 19 18 20 19 17 18 17 16 15 15 15 15 14
12 12 12 12 11 10 10 10 10 9 10 10 13 14 13 15 15 15 17 17 16 17 17 16 17 18 18 16 16 17 18 18 15 14 15 17 18 18 18 16 17 18 16 16 16 17 17 15 15 18 17 16 17 17 16 17 18 19 17 16 17 17 17 17 17 18 19 19 15 14 19 20 19 21 22 20 20 21 19 19 19 18 17 17 16 16 15 14
12 12 12 12 11 11 11 11 10 10 11 12 13 14 14 15 14 15 17 16 16 18 17 16 16 18 18 16 15 18 19 17 15 14 15 17 17 18 19 17 16 17 15 16 18 17 16 15 15 17 17 16 17 17 16 16 19 19 14 13 16 16 17 17 17 17 17 17 15 14 17 18 18 20 20 20 20 19 19 20 19 17 17 17 16 16 16 15
12 11 11 12 11 11 12 12 10 10 12 13 13 13 14 14 14 16 17 16 17 18 17 16 16 17 16 14 15 17 16 16 17 16 14 16 17 17 19 17 17 18 16 17 19 17 16 17 16 16 17 17 16 17 16 16 19 17 12 12 15 15 16 16 16 17 15 16 17 14 16 19 19 19 17 17 19 20 21 22 22 20 18 17 17 17 16 14
11 11 11 11 11 11 11 12 12 12 13 13 13 14 14 13 14 17 16 16 18 19 18 16 16 16 14 14 16 16 14 15 17 15 13 16 16 16 18 16 17 18 15 17 19 17 15 15 15 16 18 17 16 14 13 16 19 14 10 12 13 13 14 14 16 17 15 17 18 15 16 19 20 20 19 18 20 21 22 22 21 20 19 18 19 18 16 14
11 11 11 11 11 10 10 11 12 13 13 13 14 13 14 14 15 16 14 16 18 17 16 15 16 15 15 15 15 15 16 15 14 14 14 16 16 16 16 14 16 17 16 16 17 16 13 11 12 15 16 16 14 11 10 14 15 12 13 16 16 15 15 14 15 16 17 18 17 15 17 19 19 20 20 21 21 21 23 23 22 22 21 20 20 19 16 13
11 11 11 11 11 10 10 10 11 12 13 13 13 13 14 15 16 16 14 16 18 16 15 15 15 14 14 16 16 15 16 14 13 15 15 15 16 16 16 16 17 17 16 17 16 15 14 13 14 14 13 13 14 12 11 11 11 13 17 18 18 17 16 16 15 15 17 19 16 13 14 16 18 19 19 21 20 19 21 23 24 25 25 24 22 19 15 12
10 10 11 11 11 11 11 11 11 12 12 13 12 12 15 15 14 15 15 17 18 16 16 15 13 14 14 16 16 15 15 15 14 15 15 14 15 16 16 17 17 17 17 17 16 15 15 15 15 14 12 13 16 15 13 12 12 15 18 18 18 18 17 17 17 15 16 17 14 12 14 15 16 19 19 20 20 19 18 19 22 23 24 25 21 17 15 11
9 10 10 11 11 10 11 11 11 11 11 12 12 12 14 14 14 15 16 17 18 15 15 14 13 14 15 16 16 14 15 15 14 14 15 15 15 15 16 16 16 18 18 17 16 16 17 15 14 15 14 14 17 18 16 15 14 15 17 18 18 18 17 18 16 14 16 17 14 11 14 16 16 18 19 19 21 21 18 17 18 18 19 21 19 15 14 11
9 9 10 10 11 10 10 11 11 11 11 12 11 11 12 13 15 16 16 17 16 13 13 13 13 14 14 15 15 14 15 15 13 14 15 14 14 15 15 15 15 16 17 16 16 16 17 17 16 16 16 15 16 18 18 16 14 15 16 17 18 18 19 19 18 18 18 18 15 13 15 18 19 19 18 18 19 18 18 17 15 15 15 15 15 13 12 12
9 9 9 10 10 10 10 10 11 11 11 11 11 11 11 13 14 14 15 16 15 14 13 13 13 14 14 14 13 14 16 15 13 14 14 14 15 15 15 16 15 15 17 17 16 15 16 18 16 14 14 14 16 17 17 16 16 14 14 16 18 18 19 18 16 16 16 16 16 15 16 18 18 19 18 17 18 18 17 16 14 16 15 14 14 13 12 13
9 9 9 9 10 10 10 10 10 11 11 10 10 10 11 13 13 13 14 15 15 14 13 13 14 14 14 14 13 13 14 15 13 14 14 14 14 15 15 16 15 15 17 18 17 16 16 17 14 12 13 13 14 16 16 17 17 15 14 16 16 15 18 18 14 12 12 15 17 16 17 18 18 19 19 19 20 19 18 18 18 19 17 15 15 14 14 13
9 9 9 9 10 10 10 10 10 10 11 10 10 11 11 12 13 13 14 15 15 14 14 14 15 15 14 14 14 13 14 14 13 14 14 14 15 15 15 16 16 15 17 18 18 17 18 17 13 12 14 12 10 13 15 14 15 15 15 16 15 14 17 18 17 15 13 15 17 16 17 18 18 19 19 19 19 19 20 20 19 19 18 16 16 16 15 14
8 8 9 9 10 10 10 10 10 10 10 9 10 11 11 11 13 13 13 14 15 15 15 15 15 15 15 14 14 13 14 15 14 14 15 14 15 17 15 16 16 15 16 18 18 17 17 18 14 10 12 12 10 14 16 13 12 14 15 15 16 17 17 16 17 17 16 15 17 17 16 16 17 19 20 20 20 22 22 20 19 19 18 17 18 18 16 14
8 8 9 10 10 10 10 10 9 10 10 10 9 10 11 11 12 13 14 14 15 14 14 15 16 15 15 14 14 13 13 15 13 13 15 15 15 16 16 17 17 15 15 16 17 17 16 19 16 10 10 13 13 14 15 14 13 13 13 14 15 16 17 16 16 17 18 17 17 18 18 19 19 19 20 22 22 23 23 22 22 21 19 18 19 18 16 16
8 8 9 10 10 10 10 9 9 9 10 10 10 10 11 11 12 13 14 14 15 14 14 15 16 15 15 14 14 14 14 14 13 13 15 15 15 16 15 17 17 15 14 16 16 17 16 17 17 12 10 12 14 14 15 15 14 14 14 15 14 14 15 15 15 15 17 18 16 16 18 20 20 20 21 22 22 22 22 22 23 23 22 20 17 16 17 17
7 7 9 10 10 10 9 9 9 10 10 11 11 11 12 12 12 13 13 13 14 15 14 15 15 15 15 14 14 14 13 13 13 13 15 15 15 17 16 17 17 15 14 15 15 16 16 16 16 13 12 13 15 14 13 14 15 15 15 15 15 15 15 16 16 13 14 16 16 16 18 20 20 21 22 23 23 21 20 19 20 23 24 21 15 15 17 16
7 7 8 10 10 9 9 9 10 10 10 11 11 12 12 12 12 12 13 13 13 14 14 14 15 15 15 15 15 14 13 14 13 13 14 15 15 17 16 16 16 15 15 15 15 16 17 16 16 15 13 14 14 11 9 11 14 15 15 15 16 16 16 17 17 14 14 15 14 14 17 19 20 21 21 21 20 19 17 17 19 21 22 18 15 16 15 14
7 7 9 9 9 9 9 10 10 10 10 11 12 12 12 12 12 12 12 12 13 13 13 13 14 15 15 15 15 14 14 14 14 13 15 15 15 16 16 15 15 15 16 16 15 16 16 16 16 16 15 14 13 11 9 9 12 14 14 13 14 15 16 17 16 15 15 15 15 14 15 18 20 19 17 16 16 15 15 17 19 21 19 15 15 16 14 12
7 8 9 9 9 9 10 10 10 10 10 11 11 11 12 12 12 12 12 12 12 13 13 13 14 14 15 15 15 14 15 15 15 14 15 15 15 14 15 16 15 15 17 16 16 16 16 16 16 16 16 15 14 14 13 11 11 13 14 13 14 15 15 15 15 15 16 16 16 16 16 18 19 18 15 15 16 17 16 15 16 19 19 17 17 18 15 12
7 7 8 9 9 9 9 10 10 10 10 10 10 11 11 11 11 12 12 12 12 13 13 13 14 14 14 14 15 14 14 15 16 15 14 15 15 13 14 15 15 16 17 16 17 17 16 16 16 15 15 15 16 16 15 14 11 12 13 13 13 14 14 15 15 15 16 17 16 16 18 20 19 18 18 18 17 18 19 17 15 15 16 16 16 17 16 13
7 7 7 8 8 7 8 8 9 9 10 10 10 10 11 11 11 11 12 12 12 13 13 13 14 14 14 14 14 14 14 15 16 15 14 15 15 14 13 13 14 16 16 16 16 16 16 16 16 16 16 16 17 17 16 14 13 13 14 13 13 13 14 15 15 15 16 17 15 15 18 19 20 20 20 20 19 19 20 20 18 17 17 16 15 13 12 11
6 7 8 8 7 7 7 8 8 9 10 10 10 11 11 11 11 11 11 12 12 12 13 13 13 13 13 13 13 14 14 14 15 14 14 14 15 14 12 11 13 15 15 16 16 15 15 16 16 17 17 17 19 18 16 15 16 15 14 14 13 13 13 14 15 16 17 16 16 17 17 17 18 19 20 20 20 20 20 20 20 19 19 17 15 13 12 10
6 7 8 8 7 7 7 7 8 8 9 9 10 11 11 11 11 11 11 11 12 12 12 12 12 12 13 14 13 13 13 14 13 14 14 14 14 14 13 12 13 13 14 14 14 15 15 16 16 16 16 17 18 18 16 15 16 16 15 14 13 12 13 14 14 16 16 16 16 18 18 17 17 19 19 19 19 19 20 21 19 17 17 16 16 17 17 13
6 6 7 7 7 7 8 8 8 8 8 8 8 9 10 10 11 11 11 11 11 11 12 11 12 12 13 13 13 13 13 13 13 13 14 14 14 14 14 14 13 12 12 13 13 13 14 15 16 16 15 16 17 17 16 15 15 15 14 14 13 13 13 14 14 16 16 16 17 18 17 17 18 19 19 19 19 19 19 19 18 16 17 19 19 19 19 16
5 5 6 6 6 7 7 7 7 7 8 8 8 8 8 9 10 11 11 11 10 10 11 11 12 12 12 12 13 13 13 14 14 14 14 14 14 14 14 15 14 12 11 13 13 12 12 14 16 15 14 15 16 16 16 14 14 15 14 13 13 13 13 13 14 15 15 15 16 17 16 17 18 19 19 19 18 17 17 18 18 18 19 19 19 19 17 16
5 5 6 6 6 6 7 7 7 7 7 8 8 9 9 8 9 10 10 11 11 11 11 11 12 12 12 12 12 12 13 14 14 14 15 14 14 14 14 14 14 13 12 12 13 12 12 13 15 15 13 14 15 15 15 14 13 13 14 13 13 13 13 13 14 14 15 15 15 15 15 16 18 19 19 18 17 17 17 17 18 18 18 18 18 18 16 16
5 5 5 6 5 6 7 7 7 7 7 8 8 8 9 9 9 10 9 10 11 10 11 11 12 12 12 12 12 12 13 14 14 15 15 14 14 14 14 13 14 14 12 12 12 12 12 12 13 13 13 13 14 14 14 13 12 12 14 14 14 14 13 14 14 14 15 15 15 15 15 17 18 18 18 18 17 16 17 17 18 18 17 17 17 18 17 17
Height
804 803 803 803 803 804 804 805 805 805 806 806 807 807 807 808 808 808 808 809 809 809 809 809 809 810 810 809 809 809 809 809 809 809 810 812 812 813 813 812 813 812 812 811 810 811 811 812 812 812 812 815 821 824 825 827 830 829 836 844 846 855 853 847 851 851 846 842 844 849 848 846 848 851 852 852 852 851 853 853 853 853 852 851 850 850 850 850
803 803 803 803 803 803 803 804 805 805 805 805 806 806 807 807 807 808 808 808 808 809 809 809 809 809 809 809 809 808 808 808 808 809 810 812 812 812 813 813 813 812 812 811 810 810 811 813 812 812 815 820 825 825 825 829 830 834 844 845 844 848 846 843 844 845 845 842 843 848 850 848 846 849 851 850 850 852 852 850 851 851 849 850 850 850 850 850
803 803 803 802 803 803 803 804 804 804 804 804 805 805 806 806 806 807 807 808 808 808 808 808 809 808 809 809 808 808 808 808 809 811 811 811 812 813 813 813 813 812 811 811 811 810 811 813 812 814 818 822 828 827 827 830 832 839 844 838 839 842 842 846 845 843 845 844 843 846 850 849 847 849 849 848 850 852 850 846 848 847 844 846 849 849 849 850
803 803 803 803 803 803 803 804 803 803 803 804 804 804 805 805 806 806 806 807 807 808 808 808 808 808 809 808 808 808 807 809 812 812 811 811 812 813 813 813 813 812 812 811 811 811 812 812 812 815 819 825 831 830 830 833 834 840 841 835 840 844 841 843 844 843 846 847 844 845 850 848 847 850 848 848 850 849 845 841 841 840 839 843 847 848 848 849
803 803 803 803 803 803 803 803 803 803 803 803 803 804 804 805 805 806 806 806 807 807 807 808 808 808 808 807 809 807 808 815 815 811 811 812 812 813 813 813 812 812 812 811 811 812 812 812 814 817 822 826 830 830 833 838 836 838 842 841 845 846 840 841 846 846 848 848 845 846 847 845 847 849 847 848 847 843 839 837 838 837 838 841 844 846 848 849
803 803 803 803 803 803 803 803 803 803 803 803 803 804 804 805 805 805 806 806 806 807 807 808 807 808 808 807 808 806 810 818 814 810 812 812 812 813 813 813 813 812 812 811 812 812 813 814 816 821 826 829 833 833 835 840 839 836 841 845 847 847 842 844 848 847 848 845 843 844 843 845 847 846 849 848 841 836 836 838 839 839 840 840 841 844 845 846
802 802 802 802 803 802 803 803 803 803 804 804 803 804 804 804 804 805 805 805 806 806 807 807 807 807 807 807 807 807 810 814 811 811 812 811 812 813 813 813 812 812 812 812 812 813 815 816 819 825 828 831 836 835 836 839 837 834 838 842 845 847 844 846 849 848 849 843 843 846 844 845 844 844 852 847 835 835 837 839 839 839 840 840 841 842 842 843
802 802 802 802 802 802 803 802 803 803 803 804 804 804 804 804 804 804 804 805 805 806 806 806 807 807 807 807 807 809 811 811 811 811 811 812 812 813 813 813 813 813 812 812 813 813 816 818 822 827 829 833 834 835 838 836 834 835 838 841 844 846 845 848 849 847 848 845 847 847 843 846 847 848 850 839 831 835 838 838 839 839 839 840 840 840 841 841
801 802 802 802 802 802 802 802 803 803 803 803 803 803 803 803 804 803 804 804 804 805 805 806 806 806 806 806 807 811 812 810 810 810 811 812 813 813 813 813 813 813 812 813 814 812 815 820 823 824 827 834 834 834 837 834 836 838 839 841 842 843 845 848 846 845 847 846 848 844 842 847 850 851 843 832 832 836 838 838 839 839 838 839 839 839 839 840
802 802 802 802 802 802 802 802 802 802 802 802 802 803 803 803 803 803 803 803 804 804 805 805 805 805 805 805 808 813 812 809 810 810 811 812 813 813 813 814 813 813 813 814 814 814 816 818 821 821 824 831 834 837 839 836 838 841 842 842 842 842 845 847 843 845 847 845 847 843 843 846 850 851 837 828 836 839 837 837 839 839 837 838 839 839 839 839
802 802 802 802 802 802 802 802 802 802 802 801 802 802 802 803 803 803 803 803 804 804 804 805 805 805 805 805 810 813 810 809 810 810 811 812 813 813 813 814 813 814 814 815 815 816 817 817 820 821 824 830 834 838 840 839 840 843 842 841 842 842 842 845 842 845 846 844 847 845 844 847 850 848 833 828 838 839 836 835 838 839 837 839 838 839 839 838
801 802 802 802 802 802 802 802 802 802 802 801 801 801 801 802 802 803 803 803 803 803 804 804 805 805 805 807 810 811 809 810 810 810 811 812 813 813 814 814 814 814 814 815 817 817 818 818 819 822 827 830 834 839 839 841 843 843 843 840 842 842 841 845 845 847 846 844 847 847 847 847 846 839 828 832 840 839 837 835 836 838 837 838 838 838 838 837
801 801 802 802 802 802 802 802 802 802 802 801 801 801 801 801 801 802 802 803 803 803 804 804 805 804 805 808 809 809 809 810 810 811 812 812 813 814 814 815 814 815 815 815 817 818 818 819 819 823 828 830 836 839 838 843 844 842 845 844 846 845 843 847 850 850 846 846 848 848 849 842 836 832 828 836 839 836 835 832 834 836 836 837 837 838 837 836
800 801 801 802 801 802 802 802 802 802 801 801 801 801 801 801 801 801 802 802 802 803 803 804 805 804 806 809 808 808 809 810 810 811 812 812 813 814 815 815 815 816 816 816 818 819 819 820 820 823 830 833 836 838 839 844 845 845 848 852 858 853 844 846 852 849 844 848 849 848 851 841 830 827 830 838 839 836 832 829 833 834 834 836 836 836 834 833
800 800 801 801 801 801 802 802 801 801 801 801 801 801 801 800 801 801 801 802 802 803 803 804 804 804 808 809 807 808 809 809 810 811 812 813 813 814 816 816 816 817 817 818 818 820 821 820 821 827 834 836 836 838 842 846 848 853 850 853 865 859 846 845 851 851 845 847 850 848 849 842 831 826 831 840 840 838 833 829 832 831 832 834 834 834 832 830
799 800 801 801 802 801 801 801 801 801 801 801 801 801 801 801 801 801 802 802 803 803 803 804 804 805 809 810 807 808 809 809 810 811 812 813 813 814 816 817 817 818 818 819 820 821 821 822 829 836 836 837 838 839 844 850 851 858 855 851 859 858 851 847 848 854 851 848 849 848 845 839 831 826 833 842 840 838 835 829 830 829 830 832 831 832 830 829
798 799 800 801 801 801 802 801 801 801 801 801 801 801 801 801 801 801 802 802 803 803 804 805 804 805 808 808 808 808 809 809 810 811 812 813 814 814 816 817 818 819 819 820 820 822 822 827 837 839 839 843 844 841 847 854 851 856 861 857 860 861 858 850 845 852 855 850 848 849 848 838 829 827 831 837 839 837 832 825 824 826 828 829 829 829 827 827
798 799 800 800 801 802 802 802 802 801 801 801 801 801 801 802 802 802 803 803 804 804 805 805 805 810 811 807 807 808 808 809 810 811 812 813 814 815 815 817 819 819 821 823 823 825 827 833 838 838 842 847 845 843 846 850 845 847 854 854 859 863 862 856 847 850 853 849 848 849 848 839 831 829 827 831 837 835 829 825 824 825 827 826 827 826 823 823
797 798 799 800 801 802 802 802 802 801 801 801 801 802 802 802 803 803 803 803 804 804 806 805 805 810 811 806 807 809 808 810 810 811 812 813 814 815 816 817 820 821 825 828 828 830 832 834 840 840 843 843 841 840 838 840 840 841 847 849 851 853 855 856 851 852 854 849 847 847 844 836 830 829 825 826 835 834 829 828 826 825 824 823 823 821 820 819
796 797 798 799 800 801 802 802 802 801 801 801 801 802 802 803 804 805 805 804 803 803 804 805 804 806 807 807 808 809 809 810 811 811 812 813 813 814 817 819 822 825 829 831 832 836 837 838 840 836 835 836 838 840 840 845 846 846 849 850 854 855 850 849 850 854 857 849 842 843 844 838 831 828 825 826 832 833 828 825 823 821 820 818 818 816 814 813
795 796 797 798 799 800 801 802 802 802 801 801 801 801 801 802 803 804 804 803 803 803 803 804 805 805 805 807 808 807 809 810 811 812 812 813 813 815 820 823 825 829 835 839 837 837 839 840 836 830 834 837 840 845 846 848 850 848 851 852 856 859 850 847 851 855 858 852 843 844 846 839 831 827 824 825 828 825 822 819 815 814 813 813 813 810 808 808
794 795 796 798 798 800 801 801 802 802 801 801 801 801 802 802 802 803 803 803 803 803 804 805 805 805 806 807 807 808 809 810 812 813 812 813 814 816 822 825 827 831 839 841 838 839 843 839 831 832 841 842 845 850 847 847 851 850 855 857 855 858 853 849 854 858 857 852 844 844 846 837 831 829 822 821 821 817 814 813 808 807 808 807 806 804 803 804
793 794 796 797 798 799 800 801 801 801 801 801 801 802 802 802 802 803 803 804 804 803 804 805 804 804 806 806 806 807 808 809 811 812 812 813 815 818 821 825 829 834 839 837 834 840 843 836 832 838 840 839 846 852 849 849 853 852 855 856 853 857 854 844 849 857 856 854 849 848 848 838 830 829 819 813 815 813 810 808 806 806 804 800 797 798 799 799
791 793 795 795 798 798 799 801 801 801 801 801 801 801 802 802 803 803 803 807 808 803 802 802 802 802 802 802 802 805 808 809 808 809 810 811 815 820 820 824 831 835 837 835 834 836 834 834 840 843 838 837 844 851 851 849 851 854 855 853 849 851 850 847 849 854 854 857 857 854 846 832 825 826 814 809 815 811 806 806 804 803 800 796 795 795 795 794
790 792 793 795 797 797 799 800 800 801 801 801 801 801 802 802 803 804 804 811 812 805 801 801 801 799 797 799 801 803 807 807 806 806 807 809 812 817 821 825 829 833 837 839 840 838 832 836 841 840 840 841 841 847 849 846 849 851 849 847 845 842 846 852 853 853 850 850 856 857 842 823 820 820 810 808 811 802 798 800 796 795 795 794 795 791 789 791
788 790 792 794 796 796 800 800 800 801 800 801 800 800 803 802 804 804 805 819 818 804 801 800 798 796 794 799 801 803 808 807 804 805 807 808 809 811 820 826 827 830 836 838 840 837 833 837 837 834 839 842 842 846 848 847 848 848 847 848 848 847 850 853 853 854 850 846 855 860 847 831 819 808 802 805 805 798 796 796 789 790 790 787 788 785 784 787
786 789 791 793 794 795 798 798 800 801 800 800 798 800 802 801 805 803 808 829 820 795 795 799 797 793 792 798 798 801 809 807 805 808 808 809 810 809 816 826 828 830 834 837 836 834 832 837 839 835 837 842 844 843 844 846 845 844 851 853 850 850 851 853 854 854 854 851 855 858 853 846 828 807 805 807 803 801 798 791 784 786 786 783 783 781 780 782
785 787 789 791 793 794 796 796 798 799 799 799 798 801 801 802 806 802 814 834 813 785 789 796 794 792 794 799 798 800 807 804 804 810 810 809 811 811 815 822 822 823 828 830 829 831 830 831 834 834 836 840 840 837 839 842 840 844 858 858 852 853 852 855 856 855 863 858 850 854 855 849 828 808 812 813 804 800 791 781 776 777 780 779 778 777 777 779
785 786 788 790 792 793 795 795 797 798 798 798 799 801 801 804 804 805 825 830 798 780 788 791 793 795 797 801 801 803 806 806 806 809 811 811 811 812 816 820 820 822 826 825 823 828 832 832 832 831 831 833 836 843 845 838 837 850 863 858 856 860 857 860 857 854 865 856 844 852 850 842 824 801 804 808 801 794 785 778 774 773 776 776 773 773 775 778
785 786 787 789 790 792 793 795 796 797 798 798 799 800 802 805 805 817 837 820 787 787 793 792 795 797 799 803 806 806 805 808 810 810 812 813 812 813 817 820 821 824 827 827 826 829 835 838 837 831 830 832 838 850 853 845 844 853 854 848 852 858 856 862 862 858 863 850 843 850 842 838 829 805 796 793 786 784 777 774 773 770 771 771 769 772 774 778
784 785 786 787 788 789 791 794 795 796 798 798 799 801 803 807 811 823 828 802 785 793 794 795 798 798 799 801 804 807 807 812 812 810 813 815 815 816 818 820 822 827 831 828 828 832 834 835 833 831 834 836 838 846 853 854 854 850 842 841 847 852 854 861 863 864 862 846 846 858 852 847 835 805 793 786 781 784 779 772 768 763 764 763 765 771 774 779
783 784 785 785 786 787 789 791 793 795 798 798 801 802 802 813 821 817 806 790 787 791 788 794 800 799 800 798 800 806 807 811 812 810 812 816 817 815 814 814 817 826 831 827 828 831 830 828 829 831 835 834 829 839 852 854 853 846 840 844 850 855 859 857 859 868 864 846 851 863 855 848 831 800 791 787 778 779 781 777 770 765 763 760 763 770 773 779
782 782 784 785 785 786 787 790 792 795 797 797 803 806 805 814 815 802 792 786 786 790 789 795 799 800 800 797 800 806 806 808 811 812 812 815 817 816 812 811 811 814 817 822 830 831 826 827 830 829 830 828 822 827 840 844 847 844 839 842 847 856 861 855 860 871 859 840 850 865 854 840 822 796 786 781 769 769 776 777 774 772 769 762 764 770 773 778
781 781 783 783 785 786 787 789 791 792 795 796 803 811 812 808 796 787 786 782 785 793 794 796 799 801 800 799 802 804 804 808 811 811 812 815 819 818 814 814 814 811 812 821 827 828 825 820 819 820 819 820 817 815 819 828 841 841 836 837 838 840 841 841 846 847 839 834 844 856 845 820 803 786 778 776 772 772 774 774 776 775 771 769 768 770 773 775
780 781 782 783 784 785 786 788 789 791 794 796 803 812 810 801 792 788 786 781 786 793 795 796 798 800 802 803 804 802 799 804 811 812 813 814 813 812 808 807 810 810 812 818 819 824 826 814 810 816 816 815 814 812 814 823 835 841 840 838 834 827 825 836 850 849 847 847 841 837 825 804 792 780 775 777 774 772 773 774 776 771 766 769 767 767 770 771
780 780 781 781 782 783 785 787 789 791 791 795 807 811 801 790 787 788 783 780 784 789 794 798 797 799 804 804 805 805 800 802 810 812 813 813 809 806 802 797 800 804 802 805 811 818 821 816 817 822 819 818 818 814 815 817 823 837 842 834 830 829 823 833 856 867 866 852 832 824 811 795 790 777 767 771 768 767 770 768 767 763 762 766 764 763 766 766
779 779 780 780 781 782 784 786 788 791 792 796 802 800 793 787 783 783 780 778 782 785 790 794 792 794 800 802 802 804 802 802 809 809 809 813 806 797 799 795 794 798 793 794 802 805 807 811 820 825 818 822 827 821 819 819 820 830 834 826 827 833 829 829 840 853 863 852 831 823 811 799 797 782 768 771 771 767 765 761 761 760 759 763 759 757 762 763
777 778 778 777 779 781 783 785 788 790 794 799 799 792 790 789 781 779 780 778 779 782 785 789 787 787 793 798 799 802 801 799 806 808 806 809 799 784 790 793 789 792 790 791 798 800 803 805 818 832 826 822 827 821 819 825 825 824 823 821 823 826 829 834 836 834 844 846 829 817 814 805 797 783 768 766 766 759 755 757 760 757 757 759 754 752 757 761
777 778 777 774 775 778 781 784 787 790 793 798 798 791 786 784 779 777 778 776 776 781 785 784 783 785 789 792 794 799 800 797 803 806 799 801 795 779 780 783 782 788 790 793 797 798 802 802 811 832 832 823 824 820 818 823 826 826 824 823 823 821 822 827 832 826 824 831 826 813 806 788 772 769 763 757 756 752 749 752 752 750 752 753 750 750 755 757
776 779 776 771 772 775 778 783 786 790 790 789 788 784 779 779 778 776 774 774 775 779 783 781 779 783 786 788 791 793 795 795 800 801 792 792 790 780 778 777 779 788 791 794 796 796 802 802 806 825 832 824 818 813 810 811 816 821 822 823 823 824 826 824 827 828 821 823 830 827 811 776 751 754 754 748 749 749 749 748 744 743 745 747 750 752 753 753
777 780 776 770 771 774 777 783 784 785 785 781 778 776 774 774 776 775 774 775 775 774 777 777 776 778 780 786 788 788 792 795 797 797 791 788 784 777 774 772 774 785 793 799 798 795 799 801 805 819 825 815 805 804 807 804 803 805 807 809 808 810 820 820 823 832 828 822 824 826 812 771 741 744 745 740 743 745 749 752 747 741 738 744 752 753 752 752
777 779 774 769 771 772 775 780 780 780 779 774 770 770 771 772 774 775 774 776 776 776 776 776 775 775 776 779 781 784 789 791 794 795 788 783 778 772 770 770 772 777 784 792 791 786 790 796 802 808 809 806 804 810 818 812 803 802 802 801 799 801 806 806 810 822 826 823 821 826 817 771 735 740 744 741 745 749 751 752 749 744 739 746 754 752 753 755
776 775 770 768 770 770 774 777 777 777 774 766 764 767 769 771 773 774 774 775 776 776 776 776 775 774 774 774 777 781 783 784 787 788 782 778 774 769 770 772 775 776 777 783 786 784 789 795 797 799 798 801 805 809 816 817 810 805 804 804 803 801 799 798 803 808 813 816 816 825 821 772 734 741 750 749 754 755 753 749 743 742 744 750 752 750 753 756
773 772 770 769 769 769 770 770 770 773 770 765 767 769 769 769 770 772 773 774 774 773 774 774 772 772 772 772 773 776 777 778 780 778 776 775 772 769 770 770 774 776 773 775 777 780 788 792 794 800 801 801 804 805 806 811 812 805 801 804 802 797 800 804 806 807 807 804 800 806 803 765 738 746 752 751 752 749 750 752 747 744 744 747 748 746 750 755
772 773 771 768 767 767 766 764 763 766 766 766 768 769 768 768 767 766 768 770 771 770 770 770 768 769 771 772 772 773 773 772 772 772 773 772 770 771 771 769 771 772 769 769 769 772 781 784 787 797 803 799 794 788 785 793 807 806 799 800 800 797 800 800 801 807 803 793 792 796 782 751 738 744 744 743 747 744 741 746 750 749 747 747 747 746 746 752
772 772 770 769 767 767 766 765 766 765 763 764 767 766 767 767 765 764 765 768 769 768 767 766 767 769 771 773 773 773 772 770 767 770 773 770 766 769 771 770 770 767 766 769 770 773 778 777 776 779 782 780 773 768 771 781 793 796 791 792 797 797 797 795 799 801 790 783 790 786 767 748 739 741 740 737 742 744 739 738 742 744 744 745 746 749 751 752
770 768 765 766 767 767 766 765 767 766 761 762 763 761 762 764 764 764 765 765 765 765 766 766 766 769 770 771 773 772 771 771 769 769 772 769 765 767 772 774 771 767 767 769 770 774 778 777 774 771 768 765 758 758 769 774 775 779 781 785 792 794 795 796 793 782 775 782 782 765 759 760 746 736 740 739 738 741 739 737 739 738 737 740 743 747 750 752
767 763 759 760 763 765 764 762 764 765 763 763 762 758 757 759 760 762 763 763 761 761 765 767 766 765 764 765 769 771 770 771 771 769 768 768 767 767 770 772 771 768 770 773 772 773 776 773 769 768 766 762 755 754 765 768 764 766 771 775 782 789 791 790 781 768 766 774 767 749 755 764 747 731 735 739 737 738 736 735 737 738 738 739 740 739 740 746
764 763 760 760 761 761 760 760 760 762 763 764 766 764 760 758 756 754 757 762 763 760 762 764 762 760 761 761 764 767 767 769 770 768 765 765 765 766 767 767 768 769 771 773 773 774 775 771 765 766 766 762 757 753 758 765 763 764 768 771 774 780 782 776 767 759 760 764 759 751 753 753 737 725 729 734 734 735 735 734 737 739 737 734 734 732 733 739
760 762 760 761 762 760 760 761 761 763 763 762 764 764 763 762 758 753 752 757 761 760 758 759 756 755 758 761 761 762 760 759 761 761 761 763 763 764 765 761 761 769 773 772 771 774 776 770 764 767 770 766 760 753 755 762 765 764 768 772 773 774 770 763 757 756 763 766 758 754 756 745 725 719 725 730 731 734 735 736 736 734 732 730 729 729 730 734
757 758 758 760 762 760 760 760 760 764 765 762 761 759 759 760 759 755 753 751 752 755 754 753 752 752 755 758 759 758 754 753 754 753 753 757 757 757 760 758 757 764 771 771 769 770 774 771 765 768 773 767 759 754 755 763 769 770 769 769 767 763 757 755 756 755 756 756 755 760 760 738 715 717 725 726 729 732 732 732 732 729 728 728 726 725 727 729
756 758 757 760 762 759 758 759 759 761 760 757 757 757 756 756 755 755 756 752 749 752 753 750 750 751 753 754 753 750 748 747 748 748 748 751 751 750 754 756 756 759 766 769 769 768 770 771 770 771 772 764 756 754 758 765 772 770 759 748 743 745 750 753 755 749 742 744 749 752 743 723 713 721 725 723 727 729 726 726 726 724 723 724 721 720 722 722
Wind_Speed
4 3 3 2 3 3 3 3 3 3 3 3 3 3 4 3 4 4 3 3 3 3 2 2 1 1 2 3 3 3 4 3 2 4 4 3 4 5 5 5 5 6 4 4 4 3 2 6 7 6 6 5 5 2 3 3 3 4 3 4 2 3 4 6 7 7 4 2 4 4 3 6 3 2 2 1 3 2 1 3 3 3 5 6 4 2 5 13
3 2 2 2 2 3 4 3 2 2 2 2 2 3 4 3 3 3 3 3 3 3 2 2 1 1 2 3 3 4 3 2 3 4 4 4 5 6 5 5 6 6 5 6 7 5 4 3 4 6 6 4 3 3 2 3 4 4 3 3 3 5 5 5 7 6 2 1 4 3 1 3 5 4 3 2 2 3 1 4 3 4 6 5 5 4 8 14
4 3 2 2 2 3 4 4 2 2 3 3 3 3 3 3 3 3 3 3 3 3 2 2 1 0 2 2 3 4 2 2 3 2 3 5 6 6 5 5 6 7 7 7 7 7 5 3 3 6 5 4 2 3 3 4 2 2 4 2 5 6 4 4 6 6 4 3 6 4 1 1 3 3 3 3 1 0 4 5 2 5 8 6 6 7 11 14
4 4 3 3 2 2 3 2 3 3 3 3 4 4 3 3 3 3 3 3 3 3 2 1 1 1 2 2 3 3 2 4 2 0 4 6 6 6 5 6 7 8 7 7 6 6 6 6 6 6 5 3 4 3 3 3 1 2 3 3 4 3 1 3 6 5 4 4 5 5 3 1 3 2 2 5 3 3 6 7 8 10 9 7 6 8 13 15
5 4 3 3 2 2 2 1 1 2 2 3 3 3 3 3 3 3 3 4 3 3 2 2 1 2 2 2 3 2 2 4 1 1 3 6 7 5 5 6 7 8 8 7 5 5 5 5 7 6 5 3 4 4 2 3 1 3 1 3 4 3 2 1 5 4 4 3 5 6 5 3 2 2 3 7 6 6 6 6 8 9 6 7 9 11 13 14
6 4 4 3 2 1 1 2 1 1 1 0 1 1 2 2 2 3 3 3 3 3 3 2 2 2 2 3 3 2 4 2 2 1 4 6 7 4 5 6 8 9 8 6 4 4 4 5 7 4 4 3 2 3 1 4 2 3 1 1 3 2 1 1 1 2 3 5 6 5 4 3 3 1 2 6 9 7 4 3 5 6 5 7 11 13 11 12
7 5 4 3 3 1 1 1 1 2 2 2 2 2 1 1 2 3 3 3 4 3 3 3 2 2 3 2 2 4 5 1 1 3 5 6 6 4 5 6 8 8 6 6 6 4 4 7 6 3 4 4 1 2 1 4 4 5 1 2 1 2 1 1 0 2 2 5 5 3 2 3 4 3 1 4 12 7 3 3 3 5 5 7 9 11 12 14
7 5 4 3 2 1 1 1 1 1 2 2 3 3 2 2 2 2 3 4 4 4 3 3 3 3 3 2 2 4 3 1 1 4 6 6 5 4 4 6 8 7 7 10 7 4 4 6 5 4 4 2 3 2 2 1 5 5 2 2 1 1 3 1 3 3 2 1 1 2 3 2 4 3 0 8 12 6 2 1 0 1 4 7 8 9 11 12
6 5 4 3 2 1 1 1 1 1 2 2 2 3 3 3 2 2 2 3 4 4 4 4 3 3 3 3 5 4 2 2 1 5 6 6 5 3 2 5 7 6 9 10 7 5 3 2 4 4 4 2 3 2 2 2 1 1 3 2 2 1 4 1 3 4 2 1 1 2 1 3 2 1 4 10 8 2 1 2 2 3 5 6 7 8 10 10
7 6 5 3 3 2 2 1 0 0 2 2 1 2 3 3 3 2 2 2 3 4 4 4 3 4 3 3 6 3 2 3 3 5 6 6 5 3 2 6 7 7 9 9 9 8 4 4 5 5 6 3 3 2 2 2 2 2 3 2 3 2 3 2 2 2 2 1 1 3 3 4 2 1 5 5 2 1 2 1 1 2 4 6 5 6 9 10
7 6 5 3 2 2 1 1 0 1 2 2 2 2 2 3 3 2 2 2 3 3 4 4 4 3 3 5 6 3 0 4 3 5 6 6 5 3 4 6 6 8 9 9 10 8 6 8 8 6 3 1 3 2 2 1 3 2 3 3 4 5 3 4 2 2 2 1 2 3 1 4 4 1 8 4 3 2 2 3 2 2 4 4 5 5 7 9
4 5 4 3 2 1 1 1 2 3 3 3 2 2 3 3 3 2 2 3 3 3 4 4 4 3 3 5 3 4 2 4 4 5 6 6 6 5 7 7 7 8 8 9 7 6 8 8 8 6 1 3 3 2 1 2 3 1 3 2 5 7 4 3 2 3 2 1 3 3 1 5 2 8 9 2 2 2 1 5 4 4 5 4 5 4 5 9
2 2 3 2 1 1 2 1 3 4 3 3 2 3 3 2 2 3 2 3 3 4 4 4 4 3 4 2 1 4 3 3 4 5 6 6 7 7 8 8 9 9 8 10 8 7 7 5 8 8 3 5 3 1 3 4 3 1 3 2 3 6 4 3 2 2 1 2 1 1 2 6 8 13 8 2 1 1 2 6 5 5 5 4 5 4 5 8
2 2 1 1 0 2 3 3 3 4 3 3 2 3 3 3 3 3 3 4 4 4 4 4 4 4 4 1 2 2 2 2 4 6 7 7 8 10 10 9 10 10 9 11 11 9 8 7 11 9 3 4 3 1 4 5 4 1 2 2 2 1 4 5 1 2 4 1 2 2 3 6 9 12 7 3 1 3 5 7 5 6 5 5 5 5 6 8
3 2 1 1 1 3 4 4 4 3 3 2 2 3 3 3 4 4 4 4 5 5 5 5 4 4 4 1 1 2 1 3 5 6 7 7 8 8 9 10 11 12 11 11 12 11 9 8 9 6 1 2 3 4 4 4 4 3 1 2 3 1 4 7 2 3 3 1 3 3 3 6 9 10 5 3 1 4 7 8 6 7 7 6 5 5 6 7
4 3 2 1 2 3 3 4 4 3 2 2 2 3 4 4 5 5 6 6 6 6 5 4 4 5 3 1 1 1 1 4 5 6 7 7 6 7 10 11 11 11 11 10 10 10 9 7 5 3 2 2 4 5 3 3 4 4 1 2 1 1 3 5 2 2 1 1 1 1 3 4 5 6 4 2 3 4 5 9 8 8 8 7 5 5 6 6
4 4 2 1 1 2 3 4 3 3 2 2 3 4 5 5 5 6 7 8 8 6 5 5 4 5 2 1 1 1 1 4 5 7 7 6 7 10 11 9 8 8 9 8 7 5 7 6 1 1 3 3 3 4 3 2 3 4 2 1 3 2 2 3 2 2 2 2 2 2 4 8 7 7 6 2 4 4 5 10 10 8 7 6 6 6 7 7
4 4 3 2 1 1 2 3 3 3 2 2 4 6 7 7 7 8 9 9 9 7 6 3 4 3 1 1 2 1 2 5 7 9 8 8 9 10 9 6 6 7 7 5 4 4 4 4 2 2 3 3 2 5 3 4 3 3 2 1 2 2 3 3 3 2 1 2 3 3 5 12 13 11 10 5 5 5 8 9 8 8 8 7 7 8 9 9
3 4 4 2 2 1 2 3 4 2 1 2 6 8 8 7 7 6 6 5 4 3 2 2 3 3 3 2 1 3 5 7 8 8 8 10 11 10 10 8 6 6 4 1 2 3 2 3 4 2 1 2 5 6 7 7 6 6 5 4 3 3 3 5 5 4 2 1 5 7 8 13 14 12 11 7 4 5 9 8 8 9 8 8 8 9 10 10
4 4 4 3 3 1 2 4 4 2 1 4 7 6 5 4 4 2 1 0 3 5 3 2 3 3 1 1 2 7 7 6 4 4 8 10 11 11 8 6 7 6 3 3 1 2 3 4 2 5 6 7 9 7 5 5 6 7 5 4 3 3 4 5 3 5 1 2 6 7 7 13 14 12 13 7 2 5 9 10 11 10 10 9 10 11 11 12
7 5 4 4 4 2 0 3 4 3 1 4 6 3 2 3 2 0 2 3 4 5 2 1 2 2 1 2 5 8 5 3 3 3 10 9 8 8 1 4 5 2 1 2 2 2 4 4 7 8 7 7 6 6 7 6 6 6 5 2 1 3 6 5 2 4 1 3 6 4 5 13 14 13 13 7 4 8 11 12 13 13 12 10 10 13 13 10
9 7 5 4 5 4 3 0 4 4 2 3 4 3 2 4 4 2 2 0 4 3 3 1 1 2 1 3 6 6 2 3 2 1 8 7 3 4 1 4 6 4 2 1 2 3 3 4 10 6 6 6 5 6 7 6 5 4 3 3 2 3 4 5 3 4 1 3 4 4 5 11 13 12 14 12 10 11 12 13 14 13 12 11 11 13 12 10
12 10 8 6 6 5 3 2 4 4 2 2 3 4 3 5 6 3 3 2 4 2 2 3 2 3 2 1 7 7 2 3 3 4 8 8 2 3 5 5 5 4 2 4 5 4 2 6 8 5 9 8 6 5 7 6 3 2 4 3 2 2 1 3 4 4 1 2 2 4 6 9 10 10 14 14 9 10 11 12 13 11 12 15 14 11 10 11
14 13 11 9 8 7 5 3 4 4 2 4 5 5 6 6 6 2 2 2 3 4 2 4 3 4 5 3 8 10 2 3 4 5 11 10 4 3 5 5 5 4 4 6 7 5 5 5 2 5 7 8 7 5 7 6 2 2 4 6 4 4 5 4 4 3 2 3 2 3 7 7 6 8 12 8 3 7 10 9 12 12 13 15 13 11 11 12
16 15 14 12 10 10 8 4 3 4 3 4 6 7 7 7 5 3 3 3 3 5 3 3 2 4 7 5 9 9 2 2 3 5 12 12 7 4 3 3 4 4 6 5 5 4 7 5 4 6 4 6 7 4 5 7 3 4 5 9 9 7 6 3 3 5 4 4 2 1 4 6 4 5 10 5 4 8 7 6 12 12 11 11 10 13 12 11
15 16 17 15 14 13 9 3 4 4 3 3 5 9 9 6 5 4 4 4 3 4 1 3 3 5 8 6 7 6 2 4 4 3 11 10 6 5 3 1 2 3 6 6 3 3 3 2 4 6 5 5 6 3 5 7 5 3 4 7 9 6 4 3 1 2 1 4 3 2 1 6 5 4 8 6 7 13 9 10 14 11 10 10 9 11 10 9
12 16 18 18 18 18 9 3 5 4 2 2 4 11 12 8 5 3 4 4 4 3 4 2 1 5 7 6 6 7 3 5 1 4 5 5 2 3 4 4 2 2 4 4 1 3 3 3 2 5 6 5 5 3 6 8 7 3 3 3 6 7 6 5 4 3 3 3 3 3 4 4 7 6 7 5 8 13 12 14 15 10 11 11 10 11 10 9
8 12 17 19 21 20 11 6 10 7 3 1 4 13 14 9 5 2 4 1 4 2 4 1 1 3 3 2 3 5 2 1 4 1 2 3 1 3 3 7 6 6 5 5 4 4 3 6 6 7 5 4 5 4 8 11 5 4 2 5 6 6 5 5 5 3 1 4 4 3 5 2 8 6 3 2 5 10 12 14 15 11 10 10 10 11 10 8
6 8 15 21 22 22 15 8 8 7 5 4 4 14 15 9 4 4 5 2 2 1 1 1 3 1 2 2 2 3 2 2 2 3 3 4 1 4 3 6 6 7 4 3 5 2 1 5 7 8 5 6 4 1 6 10 4 3 6 7 6 6 5 5 4 2 3 3 4 6 7 3 6 6 1 1 3 8 11 12 12 10 8 8 9 9 7 5
6 6 11 20 23 23 17 10 8 7 7 4 6 16 14 5 3 4 2 3 1 1 0 1 2 1 5 7 0 3 3 2 1 1 2 1 2 5 2 3 6 5 0 4 2 2 1 1 2 4 4 5 5 4 1 4 6 6 6 6 6 5 4 4 2 4 3 5 4 7 10 5 4 5 3 4 4 6 8 7 9 8 7 8 8 6 5 4
6 5 8 19 26 25 17 10 11 11 7 7 12 16 10 3 3 4 4 2 1 1 2 1 1 4 9 9 3 1 2 2 1 3 3 1 2 4 1 1 4 4 2 4 4 2 2 1 1 2 2 5 7 6 4 3 5 6 4 4 4 3 4 4 3 3 2 5 3 2 5 3 5 7 4 6 7 6 7 6 8 9 8 8 6 4 4 3
5 5 7 17 26 27 17 11 16 15 9 11 13 9 5 2 0 5 5 1 1 3 4 2 1 5 8 5 3 5 4 1 1 4 4 3 4 4 4 5 5 2 2 6 4 3 2 4 3 0 1 4 6 6 5 4 2 4 5 5 4 2 3 2 3 0 3 7 2 2 1 2 8 8 8 11 13 11 9 8 10 10 9 9 7 5 3 2
4 5 6 14 24 27 21 16 19 18 16 19 11 5 2 6 7 10 9 4 1 2 3 3 2 4 7 5 3 4 3 1 4 3 2 3 4 5 4 4 5 3 2 5 3 1 3 5 1 3 1 3 8 6 3 1 2 5 6 6 4 2 1 4 4 1 4 6 3 3 3 3 6 6 11 18 18 13 9 9 11 10 11 12 8 4 2 2
3 5 6 10 20 25 23 18 20 21 22 22 10 3 3 7 9 12 13 7 1 2 3 3 4 4 5 4 3 4 3 2 5 4 2 4 4 5 5 5 5 2 3 4 3 5 5 6 5 8 3 6 11 8 6 7 5 5 4 5 5 5 5 5 3 3 5 4 3 2 2 4 4 3 8 13 13 10 7 9 9 9 11 10 8 6 3 4
4 5 7 8 13 21 23 19 21 25 24 16 6 4 7 8 5 6 8 5 1 2 2 2 6 6 3 2 3 4 4 2 4 4 3 5 5 7 6 8 10 6 4 4 2 3 5 7 6 3 1 9 12 5 5 8 3 2 3 4 4 5 5 1 3 5 3 2 3 2 4 5 5 6 8 7 8 8 7 8 7 10 12 8 8 8 5 6
4 3 5 8 10 16 21 21 23 27 21 10 4 5 7 7 4 3 4 3 3 4 4 2 4 4 4 2 2 4 1 1 4 4 3 3 3 5 6 7 10 11 9 7 3 2 3 5 5 4 2 5 6 2 4 4 3 2 3 4 4 4 6 3 2 1 4 2 4 2 5 6 3 7 10 8 9 9 8 9 9 11 11 7 8 7 5 6
4 2 3 8 9 13 18 23 27 26 14 6 6 7 5 5 4 4 3 3 4 6 6 3 2 4 5 3 3 5 2 1 3 4 3 2 3 6 7 4 4 13 13 7 3 3 5 3 5 2 1 3 1 2 3 3 3 6 4 6 3 2 3 3 2 1 3 4 5 2 6 6 3 6 5 2 7 10 11 12 11 11 10 7 9 8 5 6
5 2 4 9 13 13 16 25 29 20 7 3 6 6 4 4 4 4 3 3 5 7 7 6 4 4 5 5 4 5 5 3 5 5 3 3 4 7 9 4 4 13 15 6 2 3 4 3 5 1 3 3 4 2 1 4 2 5 4 4 4 2 2 2 3 3 2 3 4 4 6 5 5 6 3 3 8 11 13 12 10 12 11 8 11 9 5 4
3 1 4 8 15 16 18 27 25 11 3 4 6 6 5 6 5 3 4 3 4 6 6 6 4 2 4 6 4 4 6 6 7 6 4 4 5 5 10 8 5 10 13 10 5 3 3 3 4 2 2 1 3 2 5 1 2 3 1 2 2 2 4 3 3 4 3 3 3 4 5 5 7 7 6 9 11 11 11 9 9 12 11 10 10 8 4 5
1 1 2 4 15 20 23 25 15 4 4 5 6 5 4 5 4 5 7 4 2 3 4 6 7 5 5 5 3 3 6 6 6 6 4 5 5 5 7 9 4 4 7 10 8 2 2 3 4 2 3 1 3 5 8 9 6 4 3 4 3 1 2 1 1 2 3 3 2 2 5 10 8 6 8 11 11 11 11 9 10 9 9 10 8 6 5 5
2 2 2 4 18 26 24 15 5 4 5 5 7 6 4 4 5 7 8 3 0 1 2 4 7 6 5 4 3 3 5 4 5 5 4 5 6 5 6 9 9 7 6 6 7 5 3 3 3 2 1 4 5 4 5 9 9 9 8 9 10 7 5 3 3 1 2 3 4 3 4 13 8 5 8 10 8 9 9 8 9 8 9 9 6 5 6 6
2 4 1 4 22 30 17 5 3 4 5 6 8 6 3 3 4 6 8 5 3 3 1 1 5 6 5 5 4 5 6 4 5 5 4 7 10 7 5 6 10 12 9 6 6 6 4 3 3 4 5 6 5 2 1 4 4 5 5 5 7 7 6 6 5 4 2 2 2 3 2 13 7 6 6 7 6 7 6 6 7 9 8 5 4 6 5 5
2 4 4 3 25 31 11 3 6 4 5 7 6 3 3 2 2 4 6 7 6 3 2 2 3 4 5 4 4 6 6 6 7 8 7 7 9 8 5 6 9 10 8 3 2 2 3 2 3 4 3 2 3 3 2 1 0 3 4 2 3 5 5 5 4 4 4 3 2 3 3 13 6 4 4 4 3 6 6 6 8 8 7 4 5 7 5 6
1 3 4 4 23 26 9 5 8 7 8 7 6 4 3 2 4 6 6 7 6 4 4 4 3 4 4 3 4 6 9 7 6 10 9 5 6 4 7 11 11 8 7 4 3 5 4 3 5 5 3 3 3 3 2 1 1 3 4 3 5 7 6 3 1 2 2 6 8 6 7 12 6 2 2 4 3 6 8 5 5 6 7 6 6 5 4 5
1 3 2 5 13 12 4 3 5 7 10 10 9 8 7 4 5 8 8 7 5 4 4 5 4 4 3 2 2 4 8 8 7 8 8 6 4 1 4 11 12 9 8 3 3 6 5 5 6 7 7 7 7 6 5 4 3 2 4 6 8 10 10 5 2 3 5 9 9 6 9 15 9 3 3 5 3 5 8 6 5 6 7 7 6 5 5 4
1 3 3 2 5 4 2 2 2 4 8 10 8 8 10 9 4 6 8 7 5 6 5 2 3 4 3 4 4 5 8 10 8 4 4 6 4 2 3 9 11 12 10 4 4 5 2 3 9 12 12 13 13 10 4 7 6 6 9 10 10 11 11 8 3 5 10 10 7 9 16 20 17 9 6 7 5 6 8 6 5 6 7 8 7 6 5 4
2 3 3 3 2 3 4 4 3 4 4 6 5 5 10 13 6 4 7 7 7 9 6 2 3 6 6 7 8 8 8 9 8 5 5 5 3 2 0 4 7 12 10 6 5 5 2 3 10 14 15 15 17 15 7 9 9 13 14 13 12 12 13 12 11 14 14 9 10 17 19 19 22 17 10 8 7 7 8 8 7 8 8 6 5 5 6 6
3 3 3 3 2 3 5 4 5 7 6 5 3 4 9 13 11 8 6 5 8 10 7 4 7 11 12 11 10 8 8 9 8 8 7 5 3 2 1 1 5 8 7 5 4 5 3 6 10 13 16 17 19 18 10 10 10 13 15 17 16 16 16 17 20 23 18 12 14 18 15 14 22 23 15 11 10 8 9 9 8 6 5 5 5 5 6 8
3 2 2 0 1 2 2 1 2 6 9 7 3 4 6 9 12 11 6 4 5 8 10 9 12 15 15 12 10 8 9 9 8 8 8 8 7 4 3 4 4 3 5 5 3 3 3 6 9 11 14 16 19 19 13 12 12 9 10 14 16 18 21 23 25 26 22 17 16 19 18 17 21 22 15 10 10 10 9 8 6 4 5 7 7 8 8 9
3 1 2 1 1 1 0 1 1 2 4 5 4 5 4 6 10 9 5 7 6 6 11 16 16 15 14 14 12 12 12 12 11 11 9 9 9 5 4 5 2 2 4 5 3 2 4 7 9 7 8 12 17 20 17 13 12 10 7 8 13 18 23 26 24 20 17 16 19 21 20 20 20 18 13 9 7 8 8 8 8 8 9 10 10 10 10 10
4 1 2 2 1 3 2 2 2 1 2 4 4 5 6 6 8 6 3 6 9 7 11 17 18 14 11 14 15 16 16 15 15 14 11 11 10 6 5 5 4 3 4 5 3 3 5 6 7 5 7 11 14 19 17 8 6 8 8 9 16 21 21 19 17 15 16 18 20 18 16 19 19 12 9 8 7 8 11 11 10 11 11 12 13 13 12 11
8 1 2 2 1 3 3 2 3 3 5 5 4 5 5 4 3 3 3 3 6 8 8 12 15 12 10 15 19 20 20 18 17 15 10 7 7 4 4 5 5 6 5 4 2 3 5 5 5 6 7 10 14 17 12 4 3 7 12 18 24 22 14 10 11 17 20 18 15 13 15 20 17 7 7 9 8 9 12 11 11 13 13 14 15 15 13 12
Wind_Direction
172 171 149 134 139 143 147 147 156 175 186 202 206 200 209 217 221 216 205 193 182 185 187 198 222 295 345 354 1 10 5 20 93 104 104 112 100 99 73 54 46 35 35 35 68 140 85 39 30 60 89 54 19 351 26 22 54 58 76 103 160 177 200 189 176 191 169 182 200 213 196 147 170 208 178 139 36 38 302 289 277 283 253 236 250 248 187 173
175 165 165 138 139 168 159 145 156 186 192 198 200 199 204 210 220 217 204 197 187 187 188 196 221 304 356 4 6 9 357 34 110 92 93 133 122 101 80 61 52 41 52 59 62 85 87 25 15 57 62 44 354 359 43 6 50 85 109 114 206 194 203 197 172 183 162 120 167 174 174 157 180 168 149 195 302 3 237 264 306 296 265 238 229 202 185 176
181 172 175 159 138 168 161 154 169 196 198 195 202 198 196 203 211 208 202 201 192 188 189 187 199 8 23 13 7 6 358 98 93 72 112 139 127 108 83 63 56 48 51 57 57 64 88 107 80 76 57 54 8 10 48 10 26 134 112 123 233 208 214 221 181 186 198 151 140 154 157 174 207 163 154 191 211 352 215 232 217 248 248 220 203 188 180 178
183 183 181 181 165 154 155 171 195 208 205 195 207 202 190 191 194 197 194 194 191 184 181 169 153 57 41 17 15 2 42 88 82 178 141 142 130 115 81 60 50 44 43 49 58 63 84 96 79 72 69 56 344 20 52 349 308 121 108 168 225 191 160 212 197 196 197 165 142 145 130 183 224 169 155 155 161 259 239 226 208 223 228 200 193 183 177 181
187 189 182 185 174 156 143 158 211 228 215 200 205 200 184 177 176 186 187 187 182 173 171 155 124 68 49 32 19 322 38 80 210 201 142 148 132 118 76 53 41 37 36 43 56 72 83 78 64 52 59 58 351 31 50 308 80 78 66 188 191 160 93 196 207 192 170 137 114 130 150 181 157 142 162 158 188 236 229 222 217 222 210 183 184 180 177 184
190 190 182 181 159 164 151 131 69 39 14 143 161 171 178 164 158 173 176 174 173 166 159 139 109 71 60 50 25 0 76 93 251 159 154 151 132 115 71 45 34 32 32 48 56 75 74 49 58 52 54 61 9 62 91 299 37 94 355 256 200 190 68 20 231 203 153 125 136 156 178 135 111 242 190 179 220 227 211 219 225 239 225 189 173 170 177 188
190 187 184 186 166 174 147 129 98 67 42 44 67 40 46 123 138 163 164 164 164 155 145 127 96 75 69 62 38 49 83 107 292 142 159 146 136 114 71 40 34 31 34 54 49 86 83 52 76 120 82 73 179 107 35 309 36 88 116 297 208 186 223 333 77 177 127 137 180 185 141 124 163 222 73 221 240 234 237 264 254 254 224 186 167 174 190 193
192 191 192 193 178 180 166 155 133 108 98 58 40 39 46 68 97 132 152 164 155 147 140 118 96 86 74 85 89 48 49 351 40 141 153 144 140 116 79 44 38 39 55 52 47 119 103 66 114 152 83 85 167 109 347 348 41 66 138 227 150 168 281 314 88 91 74 155 219 104 135 196 203 185 59 246 248 246 247 325 354 196 167 178 182 191 196 197
199 200 197 199 203 209 223 163 109 110 111 75 31 45 53 60 77 100 137 158 148 147 135 114 100 87 90 93 93 80 317 334 68 144 148 147 135 113 89 49 42 50 65 54 48 90 102 126 171 174 136 145 133 87 345 74 73 114 138 177 124 0 321 42 93 53 2 284 81 141 238 299 248 214 267 252 254 254 162 64 49 122 156 193 199 201 200 200
206 208 209 211 209 219 260 243 167 49 91 95 89 67 61 64 67 77 110 129 130 137 121 114 107 91 112 104 84 96 288 26 86 148 147 149 137 124 82 55 51 70 75 58 54 63 83 164 170 147 133 119 104 78 352 90 138 129 114 117 84 358 331 70 110 26 338 250 144 199 266 305 324 322 256 263 325 33 140 95 352 162 196 215 215 216 210 211
207 206 209 219 213 219 276 299 353 49 56 71 100 91 87 79 67 70 86 94 106 119 112 108 107 99 104 97 99 157 186 55 91 140 146 148 135 124 81 64 66 88 86 67 59 58 86 140 139 122 112 105 104 47 0 116 118 98 118 125 9 353 3 39 51 345 349 208 180 162 262 307 6 271 241 268 356 12 180 229 278 235 240 239 233 235 219 224
196 194 197 208 212 245 22 13 24 40 28 28 45 80 97 89 85 94 89 91 97 102 106 102 102 110 80 71 113 178 141 73 99 130 146 145 128 114 83 73 78 93 100 86 69 66 97 128 112 93 70 138 122 40 108 109 87 74 100 142 329 358 11 350 354 320 339 155 189 137 320 288 228 228 244 307 356 24 348 248 269 249 254 258 245 252 234 234
145 166 191 204 200 31 23 351 13 22 7 5 24 76 91 85 99 116 110 101 103 97 98 101 97 95 79 58 161 159 140 93 110 131 136 134 122 106 89 88 90 93 101 97 86 82 106 128 99 103 118 107 119 173 116 59 44 348 38 91 337 3 344 311 13 342 164 153 287 115 277 268 242 243 253 351 133 95 288 255 258 251 254 257 247 254 249 240
135 125 155 193 130 62 44 27 28 20 3 356 20 72 82 89 111 126 121 108 109 104 95 103 108 92 84 179 199 134 176 142 127 140 139 141 127 104 96 97 97 97 96 94 88 84 103 113 96 100 89 84 132 111 49 16 24 33 26 51 21 15 280 296 345 130 153 179 14 105 243 267 267 263 268 311 187 170 249 255 253 253 252 252 249 248 250 242
155 144 108 60 57 64 61 48 40 25 15 12 27 61 74 97 116 117 119 119 116 112 109 110 119 104 71 299 213 104 188 155 143 150 146 152 137 111 106 106 102 99 95 93 91 86 95 102 82 79 69 24 78 77 33 358 20 37 40 314 355 155 270 306 314 157 155 356 39 119 239 272 271 270 288 320 157 169 246 259 260 257 251 248 249 244 249 251
154 146 140 110 58 48 52 43 38 28 23 36 48 67 82 98 110 112 118 119 118 117 111 110 115 112 93 300 170 89 102 128 140 152 149 159 155 129 122 113 99 97 98 94 94 86 70 68 62 69 125 73 73 86 51 15 356 359 67 228 265 167 280 316 334 239 239 74 40 204 239 276 275 274 312 352 157 165 246 264 262 255 253 248 245 245 247 254
170 153 148 136 72 28 22 22 28 25 25 77 96 91 93 96 105 113 117 113 115 111 101 115 115 103 98 179 169 295 85 121 137 146 143 148 151 138 126 106 91 98 96 87 90 70 37 46 74 7 57 64 90 95 62 356 292 318 26 209 238 198 216 295 302 287 20 75 226 234 239 257 266 272 289 289 164 171 234 257 259 255 255 248 242 248 246 245
184 175 162 142 103 35 351 348 0 11 23 96 117 107 99 98 106 116 122 118 107 89 83 101 90 79 267 213 164 190 119 128 135 136 133 130 139 140 124 101 99 93 68 50 48 37 21 31 63 59 35 22 75 100 133 218 212 189 175 166 255 242 218 258 275 237 74 52 239 240 257 261 266 272 276 262 171 189 236 250 261 263 259 253 246 244 245 242
195 193 182 170 134 99 303 321 341 352 34 116 130 118 101 93 100 112 119 119 117 108 132 210 126 129 212 230 126 115 110 123 132 137 134 128 131 123 103 92 89 80 75 48 3 22 51 54 61 106 183 207 180 164 181 195 160 154 169 147 165 218 248 238 248 259 211 142 248 236 245 263 267 269 273 266 177 207 250 260 265 263 257 253 246 244 245 240
210 207 196 186 167 188 308 347 349 333 50 138 143 123 105 91 68 47 335 296 182 151 129 204 170 129 126 351 120 124 115 112 121 146 143 140 134 115 82 51 47 51 87 166 203 11 76 96 169 212 205 195 194 179 150 143 119 118 124 117 158 200 268 248 243 291 246 175 256 238 238 264 268 268 270 265 184 231 256 259 259 255 252 249 244 246 244 240
221 216 211 195 180 187 221 3 341 324 343 164 158 130 163 158 100 10 272 281 225 167 123 179 151 127 124 146 156 146 120 73 43 140 153 152 139 133 63 25 75 60 295 183 166 15 71 134 225 228 193 177 176 142 114 106 88 92 124 134 226 216 256 254 223 304 292 180 265 275 262 266 265 270 272 260 222 240 243 245 253 251 249 248 244 248 246 244
232 223 217 201 186 187 174 4 318 320 314 198 164 127 168 157 122 107 116 293 268 208 156 124 64 276 229 154 176 163 85 74 46 231 170 148 116 166 175 67 125 176 257 145 107 29 56 218 239 214 137 110 95 114 116 109 96 83 113 135 249 244 272 283 293 328 334 186 264 308 286 266 265 271 272 261 243 246 240 236 247 249 251 252 243 245 247 248
240 229 220 207 191 188 175 192 290 316 307 216 172 138 139 133 118 91 91 96 293 286 140 162 201 230 219 217 192 165 117 164 173 243 190 151 97 172 136 105 136 141 153 184 161 141 171 250 248 177 135 109 77 94 109 104 109 119 134 149 233 249 274 281 293 323 285 207 276 313 296 272 266 266 267 262 250 257 255 243 247 248 248 251 249 248 244 242
244 235 226 211 191 186 181 198 270 299 280 241 213 169 139 135 125 92 80 65 305 291 228 196 190 189 192 207 181 162 150 188 169 207 188 157 120 150 148 138 129 126 188 197 167 177 223 247 223 118 133 127 109 119 128 134 213 243 189 184 207 222 217 234 288 319 318 336 348 308 301 285 262 251 257 275 316 279 264 252 255 250 245 251 258 259 244 239
245 241 230 212 194 185 180 196 243 249 256 253 217 184 150 142 123 90 81 49 312 297 296 211 193 203 189 153 160 161 124 228 218 200 180 163 139 137 157 143 128 170 194 160 148 224 253 231 130 98 104 118 122 153 171 161 192 281 231 205 211 215 213 227 350 4 350 329 330 6 296 283 287 257 253 284 327 280 268 260 257 251 251 250 251 256 247 238
237 242 233 215 196 178 169 198 234 221 237 262 205 180 170 155 117 96 86 50 298 272 263 187 177 189 179 145 154 144 84 263 265 154 166 170 152 119 132 134 73 191 179 140 156 227 244 215 121 119 129 127 128 177 217 170 143 279 254 210 210 192 172 192 105 44 286 271 268 107 217 278 295 260 252 277 282 273 279 273 262 254 256 251 243 252 250 239
230 236 230 217 196 177 166 173 184 182 208 270 191 176 182 173 138 103 77 37 291 213 146 210 188 157 170 171 161 138 174 246 56 96 154 172 190 70 122 168 106 184 171 124 227 250 168 160 111 124 122 128 149 197 218 165 137 240 255 159 164 161 176 186 153 179 238 275 274 149 139 281 286 253 250 271 273 278 283 274 268 258 250 253 251 252 250 241
227 229 223 218 201 188 190 172 161 170 170 88 152 176 180 176 165 79 82 104 285 138 125 263 131 117 134 151 120 110 190 224 102 201 336 75 195 42 109 191 170 176 176 143 212 264 154 175 186 164 144 167 190 212 192 159 146 247 207 120 131 145 159 136 124 177 308 346 298 202 144 240 277 269 266 263 263 274 275 268 269 265 253 253 254 253 252 247
228 220 217 218 205 195 203 190 160 170 169 103 131 173 172 166 165 65 78 189 265 99 110 92 121 63 57 109 60 54 46 29 110 232 354 65 102 53 139 198 152 159 190 163 206 252 113 198 194 159 158 197 197 255 186 165 171 205 133 99 82 82 82 88 110 121 64 327 264 185 164 198 275 269 211 168 256 257 258 264 269 272 267 255 254 257 260 259
223 211 214 212 198 189 193 193 179 165 150 132 152 163 158 144 120 85 109 220 202 96 327 100 156 170 126 134 324 353 47 19 1 69 37 66 18 33 123 160 93 120 269 342 265 235 333 276 204 151 167 181 130 67 83 142 139 140 114 79 60 47 41 59 58 76 78 285 265 185 186 185 273 271 204 204 225 221 231 257 272 278 279 261 256 262 261 258
215 204 207 202 196 191 184 180 186 171 146 154 155 149 141 70 71 147 202 225 58 152 147 152 172 133 141 146 172 220 89 21 286 130 123 162 59 49 97 125 74 73 359 310 287 295 338 321 247 201 148 122 99 69 32 56 102 109 96 90 78 2 8 29 351 43 134 249 275 210 212 185 240 254 239 247 259 235 215 229 254 265 271 265 257 259 259 251
217 197 190 199 203 200 194 196 190 177 155 144 139 131 137 117 229 216 216 90 54 211 160 162 197 148 157 153 158 173 140 77 208 160 147 150 161 176 187 183 160 99 281 239 253 339 267 230 229 252 141 135 114 81 39 10 34 90 102 111 103 330 347 342 287 141 219 247 236 140 186 233 245 252 258 264 266 250 224 223 240 248 259 265 259 246 251 242
243 207 186 201 207 203 204 209 194 177 155 141 124 52 116 177 206 215 210 175 188 231 122 107 85 127 153 156 173 168 127 158 187 165 137 132 167 214 245 228 185 164 203 195 194 272 272 292 224 150 254 187 153 147 151 214 197 158 148 142 138 150 203 250 259 268 266 265 242 163 170 243 269 264 244 244 249 248 233 233 241 245 252 261 264 244 226 223
281 228 204 204 210 209 209 207 195 179 158 144 133 66 148 200 211 205 210 210 196 18 54 97 98 105 150 171 210 178 140 210 180 143 132 133 159 219 243 246 219 168 99 145 172 185 215 278 210 173 205 187 182 190 164 142 160 182 159 139 159 170 179 214 219 213 253 280 284 234 190 203 222 259 242 238 255 267 259 254 259 263 257 259 272 265 235 233
300 253 229 214 213 214 208 202 194 178 157 140 133 152 178 208 214 204 212 207 150 56 29 55 99 119 187 265 286 201 170 207 170 135 161 169 182 204 198 207 204 172 134 176 216 163 200 260 246 229 233 170 181 200 120 112 141 207 122 118 196 195 154 167 203 179 185 314 303 250 227 215 211 271 269 249 266 274 271 276 276 268 262 259 267 260 238 240
305 297 238 221 218 215 205 197 188 173 156 134 135 175 197 212 196 183 194 171 157 137 107 64 82 122 197 232 262 229 190 118 147 147 201 208 228 215 203 216 200 182 177 185 198 141 172 269 294 346 346 171 182 195 122 139 182 161 144 177 213 177 121 111 238 121 85 257 273 236 250 278 313 282 264 244 260 272 278 276 259 256 262 263 265 256 231 234
318 344 235 221 220 214 204 194 181 170 158 140 167 185 202 221 196 173 180 145 133 136 134 178 187 157 185 199 207 209 202 95 152 179 200 202 260 216 207 254 197 191 203 192 202 201 167 254 308 42 194 274 306 110 67 18 126 130 182 204 169 107 101 111 207 350 43 248 270 264 251 279 301 278 288 272 260 263 261 258 254 259 264 262 266 255 220 220
345 343 265 234 217 210 202 189 177 168 162 157 192 203 192 211 210 171 167 132 131 158 184 213 206 166 176 194 201 187 183 184 174 188 188 189 248 206 183 214 204 200 209 187 200 251 155 229 303 43 191 292 2 108 95 353 54 132 188 190 125 157 203 121 164 200 222 242 275 290 283 272 224 235 274 223 228 241 248 252 255 260 258 255 263 254 216 214
359 3 295 233 210 207 195 183 173 166 173 176 204 219 195 203 213 181 182 169 138 163 193 217 210 174 174 177 169 163 184 190 169 175 185 183 237 212 175 195 213 201 198 175 187 240 139 199 274 332 245 300 33 162 191 215 32 66 103 131 115 174 181 166 159 173 198 218 259 303 316 277 225 201 199 214 219 223 235 245 247 250 249 242 250 249 220 216
74 137 309 211 198 196 182 173 166 170 194 196 211 208 186 188 190 207 206 181 136 165 191 211 201 194 197 175 155 169 190 193 171 182 207 188 218 244 193 185 172 162 177 176 194 210 107 205 239 311 323 179 178 215 194 178 166 159 174 177 192 183 125 180 179 128 150 166 201 284 299 273 250 177 186 215 223 220 220 230 235 237 244 245 242 236 226 224
121 198 283 209 189 179 167 162 167 194 196 216 223 209 189 161 160 210 215 181 193 241 166 194 200 198 190 170 180 180 167 180 181 188 229 211 210 239 213 182 158 130 125 162 203 204 165 198 192 178 233 199 215 244 198 190 187 182 190 195 196 182 149 184 228 204 126 140 181 175 264 273 260 158 190 213 215 219 215 227 244 238 233 246 253 233 224 227
178 197 281 215 182 169 157 166 198 190 205 219 220 209 164 120 134 199 208 196 235 272 17 172 204 202 187 180 195 175 154 177 191 191 228 224 215 222 224 190 160 148 142 159 208 200 152 134 156 194 218 213 230 291 179 223 226 209 210 204 197 187 171 181 203 212 171 159 182 115 243 268 253 150 193 218 213 229 214 200 236 252 245 242 265 262 250 245
209 210 328 251 178 168 158 222 192 197 231 221 220 200 127 132 158 175 192 199 203 208 216 215 196 204 209 189 169 169 179 192 191 199 220 233 228 220 187 160 149 150 154 159 219 174 122 135 197 229 262 294 305 334 27 50 69 237 239 178 161 194 184 171 181 184 165 177 183 114 233 261 263 133 199 237 244 262 256 208 209 244 269 257 248 264 270 262
198 199 326 246 187 178 176 206 193 207 225 225 229 206 177 195 180 167 181 196 192 177 198 222 214 209 218 180 157 180 194 198 204 210 214 229 240 213 161 161 160 166 185 190 176 173 173 186 202 225 272 319 318 309 285 250 143 226 234 188 189 193 159 119 142 160 183 207 193 177 236 254 275 22 232 231 244 261 270 261 213 226 262 264 251 253 250 259
131 184 243 246 211 198 200 215 203 209 214 222 227 212 214 226 186 183 188 186 187 180 194 222 210 187 187 172 175 196 197 206 222 214 210 229 253 279 174 176 172 188 214 212 144 167 179 185 184 197 226 234 234 234 225 197 156 222 229 199 202 192 169 171 185 161 219 226 195 186 241 251 265 317 249 228 241 262 262 259 239 232 250 263 267 257 241 244
169 208 195 228 246 238 247 265 247 224 216 218 224 215 218 229 216 190 190 188 192 194 202 228 169 169 179 182 206 224 216 225 234 212 203 224 238 305 209 183 183 203 208 164 125 151 159 210 197 198 212 222 233 242 199 127 141 204 217 200 197 195 186 186 184 194 219 229 216 215 233 248 257 252 230 233 234 246 258 258 251 252 252 252 256 262 259 242
207 224 198 177 217 236 242 245 221 227 224 208 210 209 213 223 233 203 193 194 190 192 212 244 169 180 185 187 212 227 220 228 238 230 223 223 240 306 268 162 202 220 208 174 158 145 119 234 215 212 219 224 237 243 200 144 176 203 207 201 195 193 187 187 207 222 219 220 237 233 226 243 258 249 226 228 229 232 253 257 249 250 250 243 241 258 268 255
211 226 217 187 165 205 229 232 209 225 248 242 232 232 220 219 220 212 198 196 194 191 201 220 204 206 203 194 206 223 220 224 232 230 230 230 235 279 22 172 226 223 198 189 189 152 167 227 217 217 226 228 239 243 208 177 203 204 200 201 194 188 189 196 215 225 219 212 236 244 231 231 252 254 239 224 226 227 230 233 238 251 266 262 240 238 254 255
202 251 271 233 131 204 208 90 157 213 233 237 244 257 240 225 223 215 183 171 208 199 197 214 217 214 214 207 203 212 214 216 223 222 224 229 222 205 218 241 239 190 165 187 221 163 168 229 224 219 229 231 238 243 221 199 217 223 207 202 194 189 194 204 217 223 222 224 238 252 252 243 246 254 248 224 217 220 224 234 252 268 265 257 242 233 238 241
176 188 209 89 33 239 195 74 134 211 228 217 220 231 229 237 245 241 190 179 204 192 192 214 225 218 214 213 215 222 220 216 224 222 212 224 226 204 212 229 202 131 171 184 217 183 167 219 227 215 233 240 241 246 237 213 215 229 224 205 202 202 204 210 218 220 222 230 237 244 254 256 253 253 254 237 209 211 227 240 251 249 242 243 243 238 235 236
200 85 123 119 205 211 198 204 189 210 233 202 205 222 216 222 236 250 248 211 213 209 197 209 222 223 216 216 218 226 228 223 229 231 218 219 224 207 210 218 171 155 197 192 188 170 174 216 226 206 231 240 238 245 245 217 197 231 235 214 212 214 213 213 215 214 213 218 229 237 245 254 255 250 250 238 192 193 218 221 229 239 234 232 237 238 236 237
204 263 104 125 229 208 194 211 178 193 236 220 202 222 230 231 223 235 277 231 211 227 225 216 222 223 219 222 221 223 228 227 232 238 227 217 231 212 187 195 167 154 176 189 180 156 170 205 220 213 231 240 238 243 242 177 157 234 233 223 221 218 215 218 223 224 219 212 218 226 232 246 254 247 240 237 194 193 218 212 215 232 232 229 234 237 239 242